Weather History for Kansas City, MO

Change the Weather History Date:

Tuesday, October 30, 2012

  Actual Average Record
Temperature  
Mean Temperature 45 °F -  
Max Temperature 57 °F 59 °F 75 °F (2008)
Min Temperature 35 °F 43 °F 35 °F (2012)
Degree Days  
Heating Degree Days 20    
Moisture  
Dew Point 30 °F    
Average Humidity 56    
Maximum Humidity 76    
Minimum Humidity 34    
Precipitation  
Precipitation 0.00 in - - ()
Sea Level Pressure  
Sea Level Pressure 30.06 in    
Wind  
Wind Speed 5 mph (ENE)    
Max Wind Speed 13 mph    
Max Gust Speed -    
Visibility 10 miles    
Events      
Averages and records for this station are not official NWS values.
T = Trace of Precipitation, MM = Missing Value Source: NWS Daily Summary

Daily Weather History Graph

Daily Weather History Graph

Search for Another Location

Airport:

Trip Planner

Search our weather history database for the weather conditions in past years. The results will help you decide how hot, cold, wet, or windy it might be!

Date:

Astronomy

Oct. 30, 2012 Rise Set
Actual Time 7:44 AM CDT 6:19 PM CDT
Civil Twilight 7:16 AM CDT 6:46 PM CDT
Nautical Twilight 6:45 AM CDT 7:18 PM CDT
Astronomical Twilight 6:14 AM CDT 7:49 PM CDT
Moon 6:50 PM CDT (10/30) 8:31 AM CDT (10/30)
Length of Visible Light 11h 30m
Length of Day
10h 34m
Full, 99% of the Moon is Illuminated
Oct 30
Full
Nov 6
Last Quarter
Nov 13
New
Nov 20
First Quarter
Nov 28
Full

Hourly Weather History & Observations

Time (CDT) Temp. Windchill Dew Point Humidity Pressure Visibility Wind Dir Wind Speed Gust Speed Precip Events Conditions
12:54 AM 41.0 °F 38.0 °F 30.0 °F 65% 30.14 in 10.0 mi ENE 4.6 mph - N/A   Clear
1:54 AM 39.0 °F 36.8 °F 30.0 °F 70% 30.13 in 10.0 mi ENE 3.5 mph - N/A   Clear
2:54 AM 37.0 °F 32.4 °F 30.0 °F 76% 30.12 in 10.0 mi ENE 5.8 mph - N/A   Clear
3:54 AM 36.0 °F 32.1 °F 28.9 °F 76% 30.11 in 10.0 mi ENE 4.6 mph - N/A   Clear
4:54 AM 36.0 °F 33.3 °F 28.9 °F 76% 30.10 in 10.0 mi ENE 3.5 mph - N/A   Clear
5:54 AM 36.0 °F 33.3 °F 28.9 °F 76% 30.09 in 10.0 mi ENE 3.5 mph - N/A   Clear
6:54 AM 35.6 °F 31.7 °F 28.4 °F 75% 30.09 in 10.0 mi ENE 4.6 mph - N/A   Clear
7:54 AM 37.0 °F 33.3 °F 28.9 °F 73% 30.08 in 8.0 mi ENE 4.6 mph - N/A   Clear
8:54 AM 41.0 °F 37.1 °F 30.9 °F 67% 30.08 in 10.0 mi East 5.8 mph - N/A   Clear
9:54 AM 43.0 °F 40.3 °F 30.9 °F 62% 30.08 in 10.0 mi ENE 4.6 mph - N/A   Scattered Clouds
10:54 AM 46.9 °F - 28.9 °F 50% 30.07 in 10.0 mi East 8.1 mph - N/A   Overcast
11:54 AM 51.1 °F - 28.9 °F 43% 30.06 in 10.0 mi ENE 12.7 mph - N/A   Mostly Cloudy
12:54 PM 53.1 °F - 30.9 °F 43% 30.05 in 10.0 mi ENE 10.4 mph - N/A   Scattered Clouds
1:54 PM 55.0 °F - 28.9 °F 37% 30.03 in 10.0 mi East 9.2 mph - N/A   Mostly Cloudy
2:54 PM 54.0 °F - 30.0 °F 40% 30.01 in 10.0 mi East 6.9 mph - N/A   Partly Cloudy
3:54 PM 55.9 °F - 28.0 °F 34% 30.00 in 10.0 mi East 6.9 mph - N/A   Clear
4:54 PM 54.0 °F - 28.9 °F 38% 30.00 in 10.0 mi ENE 6.9 mph - N/A   Overcast
5:54 PM 52.0 °F - 27.0 °F 38% 30.00 in 10.0 mi NE 4.6 mph - N/A   Overcast
6:54 PM 51.1 °F - 28.0 °F 41% 30.01 in 10.0 mi NNE 4.6 mph - N/A   Overcast
7:54 PM 50.0 °F - 28.9 °F 44% 30.01 in 10.0 mi NNE 3.5 mph - N/A   Mostly Cloudy
8:54 PM 46.0 °F 44.8 °F 30.0 °F 54% 30.02 in 10.0 mi NNE 3.5 mph - N/A   Clear
9:54 PM 48.0 °F - 30.9 °F 52% 30.03 in 10.0 mi Calm Calm - N/A   Overcast
10:54 PM 48.0 °F - 32.0 °F 54% 30.04 in 10.0 mi NNW 3.5 mph - N/A   Overcast
11:54 PM 48.0 °F - 32.0 °F 54% 30.03 in 10.0 mi Calm Calm - N/A   Overcast